YUNHAI-2 2 (43910 NORAD) Tracking and Keplerian Element Data

This shows tracking and keplerian element data for the satellite.

Feedback or suggestion? Click here.




ElementValue
Catalog43910
NameYUNHAI-2 2
Epoch Orbit445
Epoch Day27.78215278
Epoch Year2019
RAAN42.0808
Inclination50.0155
Eccentricity0.0007248
Argument of Perigee20.931
Mean Anonmoly324.8906
Mean Motion15.15498284
Decay Rate7.09E-06
L11 43910U 18112B 19027.78215278 .00000709 00000-0 52958-4 0 9998
L22 43910 50.0155 42.0808 0007248 20.9310 324.8906 15.15498284 4455

Live tracking and technical data element details for YUNHAI-2 2 (NORAD 43910). YUNHAI-2 2 can be tracked NOW for your location showing map with azimuth and elevation plus other details from your city location.

Track the satellite on the map from your city or location and see movement details for azimuth, elevation, latitude, longitude, range, height, and movement on the map or in text.







IsCatalogInMostPopularTable: catalog: 43910, numindb: 91
Update: records affected: 1



GetName: 43910 YUNHAI-2 2

Hit Count: updated at: Thu, 23 May 2019 14:40:43 GMT